Olbia, Italy

8:50 AM CEST on September 23, 2017 (GMT +0200)
Costa Smeralda

Weather History for LIEO - December, 2012

Change the Weather History Date:

Wednesday, December 12, 2012

  Actual Average Record
Temperature  
Mean Temperature 44 °F -  
Max Temperature 55 °F 56 °F 64 °F (2000)
Min Temperature 32 °F 41 °F 32 °F (2012)
Degree Days  
Heating Degree Days 22    
Moisture  
Dew Point 35 °F    
Average Humidity 76    
Maximum Humidity 93    
Minimum Humidity 41    
Precipitation  
Precipitation 0.00 in 0.10 in - ()
Sea Level Pressure  
Sea Level Pressure 30.09 in    
Wind  
Wind Speed 5 mph ()    
Max Wind Speed 9 mph    
Max Gust Speed -    
Visibility 6.2 miles    
Events      
Averages and records for this station are not official NWS values.
T = Trace of Precipitation, MM = Missing Value Source: Averaged Metar Reports

Daily Weather History Graph

Daily Weather History Graph

Search for Another Location

Airport or City:

Trip Planner

Search our weather history database for the weather conditions in past years. The results will help you decide how hot, cold, wet, or windy it might be!

Date:

Astronomy

Dec. 12, 2012 Rise Set
Actual Time 7:37 AM CET 4:54 PM CET
Civil Twilight 7:06 AM CET 5:25 PM CET
Nautical Twilight 6:31 AM CET 5:59 PM CET
Astronomical Twilight 5:58 AM CET 6:33 PM CET
Moon 6:22 AM CET (12/12) 4:14 PM CET (12/12)
Length of Visible Light 10h 18m
Length of Day
9h 16m
Waning Crescent, 1% of the Moon is Illuminated
Dec 12
Waning Crescent
Dec 13
New
Dec 20
First Quarter
Dec 28
Full
Jan 5
Last Quarter

Hourly Weather History & Observations

Time (CET) Temp. Windchill Dew Point Humidity Pressure Visibility Wind Dir Wind Speed Gust Speed Precip Events Conditions
12:20 AM 41.0 °F 36.4 °F 35.6 °F 81% 30.01 in 6.2 mi SW 6.9 mph - N/A   Partly Cloudy
12:50 AM 41.0 °F 37.1 °F 35.6 °F 81% 30.01 in - SSW 5.8 mph - N/A   Clear
1:20 AM 41.0 °F 36.4 °F 35.6 °F 81% 30.01 in - SSW 6.9 mph - N/A   Clear
1:50 AM 41.0 °F 35.8 °F 37.4 °F 87% 30.01 in - SSW 8.1 mph - N/A   Clear
2:20 AM 41.0 °F 36.4 °F 35.6 °F 81% 30.04 in - SSW 6.9 mph - N/A   Clear
2:50 AM 39.2 °F 35.0 °F 35.6 °F 87% 30.04 in - SSW 5.8 mph - N/A   Clear
3:20 AM 41.0 °F 35.2 °F 37.4 °F 87% 30.04 in - SSW 9.2 mph - N/A   Clear
3:50 AM 39.2 °F 34.2 °F 33.8 °F 81% 30.04 in - SW 6.9 mph - N/A   Clear
4:20 AM 39.2 °F 35.0 °F 35.6 °F 87% 30.04 in - SSW 5.8 mph - N/A   Clear
4:50 AM 39.2 °F 34.2 °F 35.6 °F 87% 30.04 in - SSW 6.9 mph - N/A   Clear
5:20 AM 39.2 °F 35.0 °F 35.6 °F 87% 30.06 in - South 5.8 mph - N/A   Clear
5:50 AM 39.2 °F 34.2 °F 35.6 °F 87% 30.06 in - SSW 6.9 mph - N/A   Clear
6:20 AM 39.2 °F 34.2 °F 35.6 °F 87% 30.06 in - SSW 6.9 mph - N/A   Clear
6:50 AM 39.2 °F 33.6 °F 35.6 °F 87% 30.06 in - South 8.1 mph - N/A   Clear
7:20 AM 39.2 °F 34.2 °F 35.6 °F 87% 30.09 in 6.2 mi SSW 6.9 mph - N/A   Partly Cloudy
7:50 AM 39.2 °F 35.0 °F 35.6 °F 87% 30.09 in 6.2 mi SSW 5.8 mph - N/A   Partly Cloudy
8:20 AM 39.2 °F 34.2 °F 35.6 °F 87% 30.09 in 6.2 mi SW 6.9 mph - N/A   Partly Cloudy
8:50 AM 39.2 °F 35.0 °F 35.6 °F 87% 30.09 in 6.2 mi SW 5.8 mph - N/A   Partly Cloudy
9:20 AM 42.8 °F 38.6 °F 37.4 °F 81% 30.09 in 6.2 mi SW 6.9 mph - N/A   Partly Cloudy
9:50 AM 46.4 °F 44.3 °F 39.2 °F 76% 30.12 in - SSW 4.6 mph - N/A   Clear
10:20 AM 48.2 °F - 39.2 °F 71% 30.12 in - SW 8.1 mph - N/A   Clear
10:50 AM 50.0 °F - 39.2 °F 66% 30.12 in - SW 6.9 mph - N/A   Clear
11:20 AM 51.8 °F - 35.6 °F 54% 30.12 in 6.2 mi SW 5.8 mph - N/A   Partly Cloudy
11:50 AM 53.6 °F - 37.4 °F 54% 30.12 in 6.2 mi WSW 4.6 mph - N/A   Partly Cloudy
12:20 PM 53.6 °F - 32.0 °F 44% 30.12 in 6.2 mi Variable 3.5 mph - N/A   Partly Cloudy
12:50 PM 55.4 °F - 32.0 °F 41% 30.12 in 6.2 mi Variable 2.3 mph - N/A   Partly Cloudy
1:20 PM 55.4 °F - 33.8 °F 44% 30.09 in 6.2 mi NNE 5.8 mph - N/A   Partly Cloudy
1:50 PM 55.4 °F - 32.0 °F 41% 30.09 in 6.2 mi NNE 5.8 mph - N/A   Partly Cloudy
2:20 PM 55.4 °F - 37.4 °F 51% 30.09 in 6.2 mi NE 4.6 mph - N/A   Partly Cloudy
2:50 PM 53.6 °F - 35.6 °F 51% 30.09 in 6.2 mi NE 6.9 mph - N/A   Partly Cloudy
3:20 PM 53.6 °F - 35.6 °F 51% 30.09 in 6.2 mi NE 6.9 mph - N/A   Partly Cloudy
3:50 PM 53.6 °F - 35.6 °F 51% 30.09 in 6.2 mi NE 5.8 mph - N/A   Partly Cloudy
4:20 PM 50.0 °F - 37.4 °F 62% 30.09 in 6.2 mi ENE 3.5 mph - N/A   Partly Cloudy
4:50 PM 48.2 °F - 35.6 °F 62% 30.12 in 6.2 mi Variable 1.2 mph - N/A   Partly Cloudy
5:20 PM 44.6 °F - 35.6 °F 71% 30.12 in 6.2 mi Variable 1.2 mph - N/A   Partly Cloudy
5:50 PM 42.8 °F 41.1 °F 33.8 °F 70% 30.12 in 6.2 mi SSW 3.5 mph - N/A   Partly Cloudy
6:20 PM 41.0 °F 37.1 °F 35.6 °F 81% 30.12 in - SSW 5.8 mph - N/A   Clear
6:50 PM 39.2 °F 37.0 °F 33.8 °F 81% 30.12 in - SW 3.5 mph - N/A   Clear
7:20 PM 39.2 °F 35.0 °F 35.6 °F 87% 30.12 in - SW 5.8 mph - N/A   Clear
7:50 PM 37.4 °F 32.8 °F 33.8 °F 87% 30.12 in - SSW 5.8 mph - N/A   Clear
8:20 PM 37.4 °F 33.8 °F 33.8 °F 87% 30.12 in - SSW 4.6 mph - N/A   Clear
8:50 PM 35.6 °F 30.7 °F 33.8 °F 93% 30.15 in - SW 5.8 mph - N/A   Clear
9:20 PM 35.6 °F 31.7 °F 33.8 °F 93% 30.15 in - SW 4.6 mph - N/A   Clear
9:50 PM 37.4 °F 33.8 °F 33.8 °F 87% 30.15 in - SW 4.6 mph - N/A   Clear
10:20 PM 35.6 °F 31.7 °F 32.0 °F 87% 30.15 in - SSW 4.6 mph - N/A   Clear
10:50 PM 32.0 °F - 28.4 °F 87% 30.15 in - Variable 2.3 mph - N/A   Clear
11:20 PM 33.8 °F 30.8 °F 32.0 °F 93% 30.15 in - SW 3.5 mph - N/A   Clear
11:50 PM 32.0 °F 28.7 °F 30.2 °F 93% 30.15 in - SW 3.5 mph - N/A   Clear